TimeCDT,TemperatureF,Dew PointF,Humidity,Sea Level PressureIn,VisibilityMPH,Wind Direction,Wind SpeedMPH,Gust SpeedMPH,PrecipitationIn,Events,Conditions,WindDirDegrees,DateUTC
12:15 AM,48.2,42.8,82,30.19,10.0,Calm,Calm,-,0.00,,Clear,0,2013-05-13 05:15:00
12:35 AM,44.6,42.8,93,30.20,10.0,Calm,Calm,-,0.00,,Clear,0,2013-05-13 05:35:00
12:55 AM,44.6,44.6,100,30.20,9.0,South,5.8,-,0.00,,Clear,190,2013-05-13 05:55:00
1:15 AM,44.6,44.6,100,30.20,10.0,Calm,Calm,-,0.00,,Clear,0,2013-05-13 06:15:00
1:35 AM,46.4,42.8,87,30.20,10.0,Calm,Calm,-,0.00,,Clear,0,2013-05-13 06:35:00
1:55 AM,46.4,42.8,87,30.19,10.0,Calm,Calm,-,0.00,,Clear,0,2013-05-13 06:55:00
2:15 AM,46.4,42.8,87,30.19,10.0,Calm,Calm,-,0.00,,Clear,0,2013-05-13 07:15:00
2:35 AM,46.4,42.8,87,30.19,10.0,Calm,Calm,-,0.00,,Clear,0,2013-05-13 07:35:00
2:55 AM,44.6,42.8,93,30.19,10.0,Calm,Calm,-,0.00,,Clear,0,2013-05-13 07:55:00
3:15 AM,44.6,44.6,100,30.19,10.0,Calm,Calm,-,0.00,,Clear,0,2013-05-13 08:15:00
3:35 AM,42.8,42.8,100,30.19,10.0,Calm,Calm,-,0.00,,Clear,0,2013-05-13 08:35:00
3:55 AM,42.8,42.8,100,30.19,10.0,Calm,Calm,-,0.00,,Clear,0,2013-05-13 08:55:00
4:15 AM,42.8,42.8,100,30.19,10.0,Calm,Calm,-,0.00,,Clear,0,2013-05-13 09:15:00
4:35 AM,42.8,42.8,100,30.19,10.0,Calm,Calm,-,0.00,,Clear,0,2013-05-13 09:35:00
4:55 AM,42.8,42.8,100,30.20,10.0,Calm,Calm,-,0.00,,Clear,0,2013-05-13 09:55:00
5:15 AM,44.6,44.6,100,30.20,9.0,Calm,Calm,-,0.00,,Clear,0,2013-05-13 10:15:00
5:35 AM,44.6,44.6,100,30.20,9.0,Calm,Calm,-,0.00,,Clear,0,2013-05-13 10:35:00
5:55 AM,44.6,44.6,100,30.21,10.0,Calm,Calm,-,0.00,,Clear,0,2013-05-13 10:55:00
6:15 AM,42.8,42.8,100,30.21,10.0,Calm,Calm,-,0.00,,Clear,0,2013-05-13 11:15:00
6:35 AM,44.6,44.6,100,30.22,10.0,Calm,Calm,-,0.00,,Clear,0,2013-05-13 11:35:00
6:50 AM,44.6,44.6,100,30.24,10.0,Calm,Calm,-,N/A,,Scattered Clouds,0,2013-05-13 11:50:00
6:55 AM,42.8,42.8,100,30.23,9.0,Calm,Calm,-,0.00,,Clear,0,2013-05-13 11:55:00
8:50 AM,59.0,44.6,59,30.29,10.0,SSW,4.6,-,N/A,,Scattered Clouds,210,2013-05-13 13:50:00
9:50 AM,62.6,44.6,52,30.29,10.0,SW,8.1,-,N/A,,Mostly Cloudy,220,2013-05-13 14:50:00
10:50 AM,66.2,46.4,49,30.30,10.0,South,4.6,-,N/A,,Partly Cloudy,180,2013-05-13 15:50:00
11:50 AM,68.0,46.4,46,30.28,10.0,West,4.6,-,N/A,,Scattered Clouds,270,2013-05-13 16:50:00
12:50 PM,69.8,46.4,43,30.25,10.0,South,5.8,-,N/A,,Partly Cloudy,180,2013-05-13 17:50:00
2:55 PM,73.4,48.2,41,30.21,10.0,WSW,5.8,-,N/A,,Mostly Cloudy,240,2013-05-13 19:55:00
3:50 PM,73.4,50.0,44,30.19,10.0,SW,9.2,-,N/A,,Mostly Cloudy,220,2013-05-13 20:50:00
5:50 PM,71.6,51.8,50,30.15,10.0,South,10.4,-,N/A,,Clear,190,2013-05-13 22:50:00
7:50 PM,64.4,53.6,68,30.16,10.0,South,5.8,-,N/A,,Clear,180,2013-05-14 00:50:00
9:15 PM,64.4,51.8,64,30.16,10.0,SSE,5.8,-,0.00,,Clear,160,2013-05-14 02:15:00
9:35 PM,62.6,53.6,72,30.16,10.0,South,5.8,-,0.00,,Clear,180,2013-05-14 02:35:00
9:55 PM,62.6,53.6,72,30.17,10.0,South,5.8,-,0.00,,Clear,170,2013-05-14 02:55:00
10:15 PM,60.8,53.6,77,30.17,10.0,South,5.8,-,0.00,,Clear,170,2013-05-14 03:15:00
10:35 PM,60.8,53.6,77,30.17,10.0,SSE,3.5,-,0.00,,Clear,160,2013-05-14 03:35:00
10:55 PM,60.8,53.6,77,30.17,10.0,SSE,4.6,-,0.00,,Clear,160,2013-05-14 03:55:00
11:15 PM,59.0,53.6,82,30.17,10.0,South,5.8,-,N/A,,Clear,170,2013-05-14 04:15:00
11:35 PM,59.0,53.6,82,30.16,10.0,South,8.1,-,0.00,,Clear,170,2013-05-14 04:35:00
11:55 PM,57.2,53.6,88,30.15,10.0,South,6.9,-,0.00,,Clear,180,2013-05-14 04:55:00